TimeCET,TemperatureF,Dew PointF,Humidity,Sea Level PressureIn,VisibilityMPH,Wind Direction,Wind SpeedMPH,Gust SpeedMPH,PrecipitationIn,Events,Conditions,WindDirDegrees,DateUTC
12:20 AM,55.4,50.0,82,29.80,6.2,West,9.2,-,N/A,,Partly Cloudy,260,2012-11-19 23:20:00
12:50 AM,53.6,50.0,88,29.80,6.2,West,8.1,-,N/A,,Partly Cloudy,260,2012-11-19 23:50:00
1:20 AM,53.6,50.0,88,29.80,6.2,West,6.9,-,N/A,,Partly Cloudy,270,2012-11-20 00:20:00
1:50 AM,55.4,50.0,82,29.80,6.2,West,8.1,-,N/A,,Partly Cloudy,260,2012-11-20 00:50:00
2:20 AM,55.4,50.0,82,29.80,6.2,West,9.2,-,N/A,,Scattered Clouds,270,2012-11-20 01:20:00
2:50 AM,55.4,50.0,82,29.80,6.2,West,11.5,-,N/A,,Scattered Clouds,260,2012-11-20 01:50:00
3:20 AM,55.4,50.0,82,29.80,6.2,West,13.8,-,N/A,,Scattered Clouds,260,2012-11-20 02:20:00
3:50 AM,55.4,50.0,82,29.80,6.2,West,9.2,-,N/A,,Scattered Clouds,260,2012-11-20 02:50:00
4:20 AM,55.4,48.2,77,29.80,6.2,West,11.5,-,N/A,,Scattered Clouds,260,2012-11-20 03:20:00
4:50 AM,55.4,48.2,77,29.80,6.2,West,10.4,-,N/A,,Scattered Clouds,270,2012-11-20 03:50:00
5:20 AM,55.4,48.2,77,29.80,6.2,West,11.5,-,N/A,,Partly Cloudy,270,2012-11-20 04:20:00
5:50 AM,53.6,48.2,82,29.80,6.2,West,9.2,-,N/A,,Partly Cloudy,260,2012-11-20 04:50:00
6:20 AM,55.4,48.2,77,29.80,6.2,West,10.4,-,N/A,,Partly Cloudy,270,2012-11-20 05:20:00
6:50 AM,55.4,48.2,77,29.83,6.2,West,8.1,-,N/A,,Partly Cloudy,270,2012-11-20 05:50:00
7:20 AM,55.4,48.2,77,29.83,6.2,West,3.5,-,N/A,,Partly Cloudy,280,2012-11-20 06:20:00
7:50 AM,57.2,48.2,72,29.86,6.2,West,5.8,-,N/A,,Partly Cloudy,280,2012-11-20 06:50:00
8:20 AM,59.0,50.0,72,29.86,6.2,West,10.4,-,N/A,,Partly Cloudy,270,2012-11-20 07:20:00
8:50 AM,59.0,50.0,72,29.86,6.2,West,10.4,-,N/A,,Partly Cloudy,270,2012-11-20 07:50:00
9:20 AM,60.8,50.0,68,29.86,6.2,West,12.7,-,N/A,,Partly Cloudy,260,2012-11-20 08:20:00
9:50 AM,62.6,50.0,63,29.86,6.2,WSW,13.8,-,N/A,,Partly Cloudy,250,2012-11-20 08:50:00
10:20 AM,64.4,51.8,64,29.86,6.2,West,12.7,-,N/A,,Partly Cloudy,260,2012-11-20 09:20:00
10:50 AM,66.2,51.8,60,29.86,6.2,WSW,12.7,-,N/A,,Partly Cloudy,250,2012-11-20 09:50:00
11:20 AM,66.2,51.8,60,29.83,6.2,WSW,13.8,-,N/A,,Partly Cloudy,250,2012-11-20 10:20:00
11:50 AM,68.0,51.8,56,29.83,6.2,WSW,12.7,-,N/A,,Partly Cloudy,250,2012-11-20 10:50:00
12:20 PM,68.0,51.8,56,29.83,6.2,WSW,12.7,-,N/A,,Partly Cloudy,240,2012-11-20 11:20:00
12:50 PM,69.8,50.0,49,29.83,6.2,WSW,13.8,-,N/A,,Partly Cloudy,240,2012-11-20 11:50:00
1:20 PM,69.8,50.0,49,29.83,6.2,WSW,12.7,-,N/A,,Partly Cloudy,240,2012-11-20 12:20:00
1:50 PM,69.8,48.2,46,29.83,6.2,WSW,13.8,-,N/A,,Partly Cloudy,240,2012-11-20 12:50:00
2:20 PM,69.8,50.0,49,29.83,6.2,WSW,11.5,-,N/A,,Partly Cloudy,240,2012-11-20 13:20:00
2:50 PM,69.8,50.0,49,29.83,6.2,WSW,12.7,-,N/A,,Scattered Clouds,240,2012-11-20 13:50:00
3:20 PM,69.8,51.8,53,29.83,6.2,SW,10.4,-,N/A,,Scattered Clouds,230,2012-11-20 14:20:00
3:50 PM,68.0,50.0,52,29.83,6.2,WSW,9.2,-,N/A,,Scattered Clouds,240,2012-11-20 14:50:00
4:20 PM,66.2,53.6,64,29.83,6.2,WSW,6.9,-,N/A,,Scattered Clouds,240,2012-11-20 15:20:00
4:50 PM,64.4,53.6,68,29.86,6.2,West,3.5,-,N/A,,Scattered Clouds,260,2012-11-20 15:50:00
5:20 PM,64.4,53.6,68,29.86,6.2,Calm,Calm,-,N/A,,Scattered Clouds,0,2012-11-20 16:20:00
5:50 PM,62.6,53.6,72,29.86,6.2,West,3.5,-,N/A,,Scattered Clouds,280,2012-11-20 16:50:00
6:20 PM,60.8,53.6,77,29.86,6.2,West,4.6,-,N/A,,Partly Cloudy,270,2012-11-20 17:20:00
6:50 PM,60.8,53.6,77,29.89,6.2,North,3.5,-,N/A,,Scattered Clouds,350,2012-11-20 17:50:00
7:20 PM,60.8,53.6,77,29.89,6.2,Variable,2.3,-,N/A,,Scattered Clouds,0,2012-11-20 18:20:00
7:50 PM,60.8,53.6,77,29.89,6.2,WSW,6.9,-,N/A,,Partly Cloudy,240,2012-11-20 18:50:00
8:20 PM,59.0,53.6,82,29.89,6.2,West,5.8,-,N/A,,Scattered Clouds,260,2012-11-20 19:20:00
8:50 PM,59.0,53.6,82,29.92,6.2,West,5.8,-,N/A,,Scattered Clouds,270,2012-11-20 19:50:00
9:20 PM,59.0,53.6,82,29.92,6.2,West,6.9,-,N/A,,Scattered Clouds,270,2012-11-20 20:20:00
9:50 PM,57.2,51.8,82,29.92,6.2,West,6.9,-,N/A,,Scattered Clouds,270,2012-11-20 20:50:00
10:20 PM,57.2,51.8,82,29.92,6.2,West,4.6,-,N/A,,Partly Cloudy,260,2012-11-20 21:20:00
10:50 PM,55.4,51.8,88,29.92,-9999.0,SW,3.5,-,N/A,,Clear,230,2012-11-20 21:50:00
11:20 PM,55.4,51.8,88,29.92,6.2,WSW,4.6,-,N/A,,Scattered Clouds,250,2012-11-20 22:20:00
11:50 PM,53.6,50.0,88,29.92,6.2,WSW,4.6,-,N/A,,Scattered Clouds,250,2012-11-20 22:50:00